User: anonymous   Login
Location: Unspecified
(0.0000°N, 0.0000°E)
Time: 00:26:40
(UTC+00:00)
Language:

Meteor 2-13 - Orbit

View from above orbital plane
View from above orbital plane
View from above satellite
View from above satellite

Ground track
Ground track

The orbit data is extracted from the following two-line orbital elements,

1 16408U 85119A   18201.71662432  .00000037  00000-0  19150-4 0  9996
2 16408  82.5354  36.4658 0015128 327.6783  32.3450 13.85350873646313
Epoch (UTC): 20 July 2018 17:11:56
Eccentricity: 0.0015128
inclination: 82.5354°
perigee height: 934 km
apogee height: 956 km
right ascension of ascending node: 36.4658°
argument of perigee: 327.6783°
revolutions per day: 13.85350873
mean anomaly at epoch: 32.3450°
orbit number at epoch: 64631

The dashed part of the orbit path shows where the satellite is in the earth's shadow,  

DLR